Regional Weather Roundup
Issued by NWS Northern Indiana

Home | Current Version | Previous Version | Text Only | Print | Product List | Glossary Off
Versions: 1 2 3 4 5 6 7 8 9 10 11 12 13 14 15 16 17 18 19 20 21 22 23 24 25 26 27 28 29 30 31 32 33 34 35 36 37 38 39 40 41 42 43 44 45 46 47 48 49 50

000
ASUS43 KIWX 242200
RWRIWX

KIWX WEATHER ROUNDUP
NATIONAL WEATHER SERVICE NORTHERN INDIANA
600 PM EDT SUN MAY 24 2015

NOTE: "FAIR" INDICATES FEW OR NO CLOUDS BELOW 12,000 FEET WITH NO
SIGNIFICANT WEATHER AND/OR OBSTRUCTIONS TO VISIBILITY.

* THESE STATIONS ARE NOT UNDER NWS QUALITY CONTROL. THEY ALSO MAY NOT
  REPORT WEATHER SUCH AS PRECIPITATION OR FOG.

INZ001>027-242300-
NORTHERN INDIANA

CITY           SKY/WX    TMP DP  RH WIND       PRES   REMARKS
GARY*          LGT RAIN  73  66  78 SW5       29.99S
SOUTH BEND     PTSUNNY   83  54  36 SE14G25   30.02F
GOSHEN         CLOUDY    79  57  46 SE10      30.05F
MONTICELLO*    MOSUNNY   82  60  47 S13G22    30.02F
WARSAW*        MOSUNNY   81  55  41 S6        30.06F
ANGOLA*        CLOUDY    81  57  44 S9        30.09F
FORT WAYNE     MOSUNNY   82  53  36 S17G26    30.09F

$$
INZ028>050-242300-
CENTRAL INDIANA

CITY           SKY/WX    TMP DP  RH WIND       PRES   REMARKS
LAFAYETTE      MOSUNNY   82  59  45 S13G22    30.01F
KOKOMO*        PTSUNNY   82  55  39 S22G29    30.05F
MUNCIE*        SUNNY     84  51  31 S14G22    30.09F
INDIANAPOLIS   PTSUNNY   83  56  39 SE16      30.06F

$$
MIZ043>046-050>051-056>058-064>065-071>073-077>080-242300-
SOUTHWEST LOWER MICHIGAN

CITY           SKY/WX    TMP DP  RH WIND       PRES   REMARKS
BATTLE CREEK   CLOUDY    75  55  49 SE7       30.10F
BENTON HARBOR  CLOUDY    75  58  55 E13       30.01F
COLDWATER*     CLOUDY    75  55  50 SE8       30.09F
HILLSDALE*     CLOUDY    79  54  42 S5        30.12F
HOLLAND        CLOUDY    69  56  62 E9        30.06F
GRAND RAPIDS   LGT RAIN  70  54  56 E8        30.09F
KALAMAZOO      CLOUDY    76  56  49 E6        30.08F
STURGIS*       CLOUDY    79  55  44 SE8       30.07F
THREE RIVERS*  PTSUNNY   77  56  49 E5        30.07F

$$
OHZ001>008-015>018-024>025-242300-
NORTHWEST OHIO

CITY           SKY/WX    TMP DP  RH WIND       PRES   REMARKS
DEFIANCE       MOSUNNY   83  52  34 S12       30.10F
FINDLAY        MOSUNNY   84  50  30 S15G23    30.12F
TOLEDO EXPRESS PTSUNNY   81  53  37 S7        30.12F
TOLEDO METCALF CLOUDY    82  50  32 S10       30.13F
LIMA           SUNNY     82  51  34 S13       30.13F

$$
AND FOR LAKE MICHIGAN COASTAL AND OPEN LAKE BUOY OBSERVATIONS

STATION/POSITION TEMP    WIND        PRES    VSBY  WAVE
                 AIR SEA DIR/SP/G                  HT/PER
                 (F)     (DEG/KT/KT) (MB)    (MI)  (FT/S)
CALUMET HARBOR    62      CALM  /  3   N/A
MICHIGAN CITY     80     120/ 14/ 16   N/A
BURNS HARBOR      76     240/  5/ 13 1015.9S
SAINT JOSEPH      75      20/  2/  7 1018.6S
SOUTH LAKE BUOY   47 38   80/ 12/ 12 1017.0F         1
4 MI NW BRIDGMAN  70 56  140/ 10/ 14   N/A           1
MICHIGAN CITY     72 54  170/ 10/ 17   N/A           1

$$
&&


USA.gov is the U.S. government's official web portal to all federal, state and local government web resources and services.